This demonstration page uses our WeatherBlox Daily Observations layout. Learn more.

Left ArrowRight Arrow

39.01783, -85.05884

Hourly Observations for August 14, 2020

Temp ( °F °C ) Dew Point ( °F °C ) Humidity (%) Winds ( mph kmh ) Pressure ( in mb ) Visibility ( mi km ) Precip ( " mm )
12:52 am 00:52 Cloudy 79 26.1 63 17.2 58 58 NNE 10 17 29.97 1015 10 16.0934 0 0
1:52 am 01:52 Cloudy 76 24.4 63 17.2 64 64 N 6 9 29.97 1015 10 16.0934 0 0
2:52 am 02:52 Cloudy 73 22.8 65 18.3 76 76 N 5 7 29.96 1015 10 16.0934 0 0
3:52 am 03:52 Mostly Cloudy 74 23.3 64 17.8 71 71 ENE 6 9 29.94 1014 10 16.0934 0 0
4:52 am 04:52 Partly Cloudy 72 22.2 64 17.8 76 76 N 3 6 29.93 1014 10 16.0934 0 0
5:52 am 05:52 Cloudy 72 22.2 65 18.3 79 79 N 3 6 29.93 1014 10 16.0934 0 0
6:52 am 06:52 Cloudy 74 23.3 64 17.8 71 71 NNE 5 7 29.94 1014 10 16.0934 0 0
7:52 am 07:52 Cloudy 73 22.8 65 18.3 76 76 N 3 6 29.96 1014 10 16.0934 0 0
8:52 am 08:52 Cloudy 75 23.9 64 17.8 69 69 NNE 3 6 29.95 1014 10 16.0934 0 0
9:52 am 09:52 Cloudy 77 25 67 19.4 71 71 NNW 5 7 29.96 1014 10 16.0934 0 0
10:52 am 10:52 Cloudy 78 25.6 67 19.4 69 69 ESE 7 11 29.97 1015 10 16.0934 0 0
11:52 am 11:52 Cloudy 77 25 68 20 74 74 S 5 7 29.98 1015 10 16.0934 0 0
12:52 pm 12:52 Cloudy with Light Rain 74 23.3 70 21.1 88 88 W 6 9 29.97 1015 5 8.0467 0.001 0.001
1:52 pm 13:52 Cloudy with Light Rain 75 23.9 70 21.1 84 84 WSW 3 6 29.96 1015 8 12.87472 0.02 0.508
2:52 pm 14:52 Cloudy 76 24.4 70 21.1 82 82 NNW 5 7 29.95 1014 10 16.0934 0.001 0.001
3:52 pm 15:52 Cloudy 76 24.4 69 20.6 79 79 WNW 5 7 29.93 1014 10 16.0934 0 0
4:52 pm 16:52 Mostly Cloudy 80 26.7 69 20.6 69 69 NW 7 11 29.92 1013 10 16.0934 0 0
5:52 pm 17:52 Mostly Cloudy 79 26.1 70 21.1 74 74 NNW 6 9 29.91 1013 10 16.0934 0 0
6:52 pm 18:52 Cloudy 79 26.1 70 21.1 74 74 NNW 5 7 29.91 1013 10 16.0934 0 0
7:52 pm 19:52 Mostly Cloudy 78 25.6 71 21.7 79 79 NNW 5 7 29.92 1013 10 16.0934 0 0
8:52 pm 20:52 Cloudy 77 25 71 21.7 82 82 NNW 6 9 29.91 1013 10 16.0934 0 0
9:52 pm 21:52 Mostly Cloudy 76 24.4 71 21.7 85 85 WNW 5 7 29.92 1013 10 16.0934 0 0
10:52 pm 22:52 Cloudy with Light Rain 75 23.9 67 19.4 76 76 ENE 14 22 29.94 1014 10 16.0934 0.001 0.001
11:52 pm 23:52 Mostly Cloudy 73 22.8 65 18.3 76 76 E 8 13 29.93 1014 10 16.0934 0.001 0.001

Powered by AerisWeather